Date String (YYYY-MM-DD hh:mm:ss) UTC,Instrument flags,Ambient pressure (hPa),Sample flow (lpm),Bypass flow (lpm),Sample temperature (°C),Ambient temperature (°C),ASC tube jacket temperature (°C),LED temperature (°C),Box temperature (°C),Sample RH (%),Span deviation,Mass concentration (μg/m³),Mass concentration (μg/m³),Mass concentration (μg/m³)
DateTimeUTC,F1_M11,P_M11,Q1_M11,Q2_M11,T1_M11,T2_M11,T3_M11,T4_M11,T5_M11,U1_M11,ZSPAN_M11,X0_M11,X2_M11,X1_M11
2022-08-11 02:00:00,,0831.2,5.01,0.00,29.3,27.5,00.0,38.1,31.1,21.8,0000.0,0015.26,0005.35,0003.98
2022-08-11 02:01:00,,0831.2,5.00,0.00,29.3,27.7,00.0,38.1,31.2,21.7,0000.0,0015.90,0005.38,0003.99
2022-08-11 02:02:00,,0831.2,5.00,0.00,29.4,27.9,00.0,38.1,31.3,21.7,0000.0,0014.91,0005.39,0003.98
2022-08-11 02:03:00,,0831.2,5.00,0.00,29.4,28.1,00.0,38.1,31.4,21.6,0000.0,0014.74,0005.36,0003.98
2022-08-11 02:04:00,,0831.2,5.00,0.00,29.5,28.3,00.0,38.1,31.4,21.6,0000.0,0015.51,0005.39,0003.96
2022-08-11 02:05:00,,0831.2,4.99,0.00,29.5,28.3,00.0,38.2,31.4,21.5,0000.0,0015.61,0005.36,0003.95
2022-08-11 02:06:00,,0831.2,5.00,0.00,29.5,27.6,00.0,38.1,31.3,21.5,0000.0,0015.27,0005.35,0003.94
2022-08-11 02:07:00,,0831.3,5.00,0.00,29.4,27.1,00.0,38.1,31.2,21.6,0000.0,0016.08,0005.38,0003.96
2022-08-11 02:08:00,,0831.3,5.00,0.00,29.4,27.1,00.0,38.1,31.1,21.6,0000.0,0015.95,0005.36,0003.97
2022-08-11 02:09:00,,0831.2,5.00,0.00,29.3,27.2,00.0,38.1,31.0,21.7,0000.0,0016.16,0005.34,0003.97
2022-08-11 02:10:00,,0831.2,5.00,0.00,29.3,27.4,00.0,38.1,31.1,21.7,0000.0,0017.20,0005.31,0003.98
2022-08-11 02:11:00,,0831.2,5.00,0.00,29.3,27.6,00.0,38.1,31.2,21.8,0000.0,0016.87,0005.31,0003.99
2022-08-11 02:12:00,,0831.3,5.00,0.00,29.3,27.9,00.0,38.1,31.2,21.9,0000.0,0017.07,0005.31,0004.01
2022-08-11 02:13:00,,0831.3,5.00,0.00,29.4,28.1,00.0,38.1,31.3,21.8,0000.0,0017.75,0005.32,0004.02
2022-08-11 02:14:00,,0831.3,5.01,0.00,29.4,28.2,00.0,38.1,31.4,21.5,0000.0,0017.75,0005.30,0004.02
2022-08-11 02:15:00,,0831.3,5.00,0.00,29.5,28.4,00.0,38.1,31.5,21.5,0000.0,0017.30,0005.24,0004.02
2022-08-11 02:16:00,,0831.3,5.00,0.00,29.5,28.2,00.0,38.1,31.4,21.5,0000.0,0016.84,0005.25,0004.02
2022-08-11 02:17:00,,0831.3,5.00,0.00,29.4,27.4,00.0,38.1,31.2,21.7,0000.0,0017.25,0005.27,0004.03
2022-08-11 02:18:00,,0831.4,5.01,0.00,29.4,27.1,00.0,38.1,31.1,21.8,0000.0,0018.11,0005.32,0004.03
2022-08-11 02:19:00,,0831.3,4.99,0.00,29.3,27.1,00.0,38.1,31.1,21.8,0000.0,0018.10,0005.34,0004.02
2022-08-11 02:20:00,,0831.3,5.01,0.00,29.3,27.3,00.0,38.1,31.1,22.1,0000.0,0018.02,0005.34,0004.03
2022-08-11 02:21:00,,0831.4,5.00,0.00,29.3,27.5,00.0,38.1,31.1,22.3,0000.0,0017.46,0005.31,0004.03
2022-08-11 02:22:00,,0831.4,5.00,0.00,29.3,27.7,00.0,38.1,31.1,22.4,0000.0,0017.85,0005.28,0004.02
2022-08-11 02:23:00,,0831.5,5.00,0.00,29.3,27.9,00.0,38.1,31.3,22.3,0000.0,0016.99,0005.26,0004.01
2022-08-11 02:24:00,,0831.5,5.00,0.00,29.4,28.1,00.0,38.1,31.3,22.4,0000.0,0016.54,0005.24,0004.01
2022-08-11 02:25:00,,0831.5,4.99,0.00,29.4,28.3,00.0,38.1,31.4,22.5,0000.0,0016.19,0005.28,0004.02
2022-08-11 02:26:00,,0831.5,5.00,0.00,29.5,28.4,00.0,38.2,31.5,22.5,0000.0,0016.07,0005.33,0004.04
2022-08-11 02:27:00,,0831.5,5.01,0.00,29.5,27.8,00.0,38.1,31.3,22.2,0000.0,0016.21,0005.28,0004.06
2022-08-11 02:28:00,,0831.5,4.98,0.00,29.4,27.2,00.0,38.1,31.2,22.3,0000.0,0015.89,0005.29,0004.07
2022-08-11 02:29:00,,0831.5,5.01,0.00,29.4,27.0,00.0,38.1,31.1,22.5,0000.0,0014.58,0005.30,0004.08
2022-08-11 02:30:00,,0831.5,5.01,0.00,29.3,27.1,00.0,38.1,31.1,22.8,0000.0,0014.76,0005.29,0004.10
2022-08-11 02:31:00,,0831.5,4.99,0.00,29.3,27.3,00.0,38.1,31.1,23.3,0000.0,0015.32,0005.33,0004.11
2022-08-11 02:32:00,,0831.5,4.99,0.00,29.3,27.5,00.0,38.1,31.1,22.9,0000.0,0015.27,0005.36,0004.11
2022-08-11 02:33:00,,0831.5,5.00,0.00,29.3,27.7,00.0,38.1,31.2,22.5,0000.0,0014.98,0005.38,0004.12
2022-08-11 02:34:00,,0831.5,5.00,0.00,29.3,27.9,00.0,38.1,31.3,22.8,0000.0,0015.59,0005.41,0004.14
2022-08-11 02:35:00,,0831.5,5.00,0.00,29.4,28.1,00.0,38.1,31.3,23.6,0000.0,0015.46,0005.42,0004.16
2022-08-11 02:36:00,,0831.6,5.00,0.00,29.4,28.3,00.0,38.1,31.4,24.0,0000.0,0015.45,0005.41,0004.15
2022-08-11 02:37:00,,0831.6,5.00,0.00,29.5,28.4,00.0,38.2,31.5,23.8,0000.0,0015.70,0005.39,0004.14
2022-08-11 02:38:00,,0831.6,5.00,0.00,29.5,28.1,00.0,38.1,31.4,23.9,0000.0,0016.37,0005.41,0004.14
2022-08-11 02:39:00,,0831.5,4.99,0.00,29.4,27.4,00.0,38.1,31.2,23.7,0000.0,0016.45,0005.42,0004.12
2022-08-11 02:40:00,,0831.6,5.01,0.00,29.4,27.2,00.0,38.1,31.2,23.3,0000.0,0016.12,0005.38,0004.12
2022-08-11 02:41:00,,0831.5,4.99,0.00,29.3,27.2,00.0,38.1,31.1,23.7,0000.0,0015.74,0005.37,0004.11
2022-08-11 02:42:00,,0831.6,5.02,0.00,29.3,27.4,00.0,38.1,31.1,24.3,0000.0,0015.08,0005.35,0004.10
2022-08-11 02:43:00,,0831.6,4.99,0.00,29.3,27.5,00.0,38.1,31.1,23.6,0000.0,0014.82,0005.35,0004.10
2022-08-11 02:44:00,,0831.6,5.00,0.00,29.3,27.7,00.0,38.1,31.2,24.3,0000.0,0014.83,0005.34,0004.10
2022-08-11 02:45:00,,0831.7,4.99,0.00,29.3,27.9,00.0,38.1,31.3,24.8,0000.0,0014.24,0005.34,0004.09
2022-08-11 02:46:00,,0831.7,5.01,0.00,29.4,28.1,00.0,38.1,31.4,24.4,0000.0,0013.61,0005.39,0004.10
2022-08-11 02:47:00,,0831.6,4.99,0.00,29.4,28.3,00.0,38.1,31.4,24.2,0000.0,0013.79,0005.39,0004.09
2022-08-11 02:48:00,,0831.7,4.99,0.00,29.5,28.4,00.0,38.2,31.4,25.0,0000.0,0013.41,0005.43,0004.09
2022-08-11 02:49:00,,0831.7,5.02,0.00,29.5,27.8,00.0,38.1,31.3,26.7,0000.0,0012.52,0005.41,0004.10
2022-08-11 02:50:00,,0831.7,4.99,0.00,29.4,27.2,00.0,38.1,31.2,27.0,0000.0,0013.16,0005.41,0004.11
2022-08-11 02:51:00,,0831.8,5.01,0.00,29.4,27.1,00.0,38.1,31.1,27.0,0000.0,0013.83,0005.40,0004.11
2022-08-11 02:52:00,,0831.7,4.99,0.00,29.3,27.1,00.0,38.1,31.0,27.8,0000.0,0014.86,0005.42,0004.11
2022-08-11 02:53:00,,0831.7,5.01,0.00,29.3,27.3,00.0,38.1,31.1,28.2,0000.0,0015.84,0005.49,0004.12
2022-08-11 02:54:00,,0831.7,4.99,0.00,29.3,27.5,00.0,38.1,31.1,28.1,0000.0,0015.75,0005.52,0004.12
2022-08-11 02:55:00,,0831.7,5.02,0.00,29.3,27.7,00.0,38.1,31.2,28.3,0000.0,0015.67,0005.53,0004.12
2022-08-11 02:56:00,,0831.7,5.00,0.00,29.3,27.9,00.0,38.1,31.3,28.4,0000.0,0015.97,0005.53,0004.11
2022-08-11 02:57:00,,0831.7,5.01,0.00,29.4,28.1,00.0,38.1,31.3,28.6,0000.0,0016.17,0005.49,0004.08
2022-08-11 02:58:00,,0831.7,5.00,0.00,29.4,28.3,00.0,38.1,31.4,28.8,0000.0,0016.69,0005.52,0004.06
2022-08-11 02:59:00,,0831.7,5.00,0.00,29.5,28.4,00.0,38.1,31.5,28.9,0000.0,0016.97,0005.54,0004.06
